Location: Bednik
(45.3500°N, 16.3833°E)
Time: 06:31:27
(UTC+00:00)

Okean 1-7 - Pass Details

Date: 08 August 2020
Orbit: 590 x 619 km, 82.5° (Epoch: 23 September)

Event Time Altitude Azimuth Distance (km) Brightness Sun altitude
Rises 21:01:50 0° 350° (N) 2,880 7.7 -23.2°
Reaches altitude 10° 21:04:04 10° 349° (N) 1,966 6.6 -23.4°
Maximum altitude 21:08:25 81° 263° (W) 616 2.9 -23.8°
Enters shadow 21:08:29 81° 245° (WSW) 616 2.9 -23.8°
